Location: Bishausen
(51.6334°N, 9.9631°E)
Time: 09:30:55
(UTC+00:00)

IRAS Rocket - Pass Details

Date: 23 May 2024
Orbit: 846 x 877 km, 100.1° (Epoch: 23 June)

Event Time Altitude Azimuth Distance (km) Brightness Sun altitude
Rises 02:13:57 0° 18° (NNE) 3,441 8.8 -8.0°
Reaches altitude 10° 02:16:21 10° 20° (NNE) 2,496 7.9 -7.8°
Maximum altitude 02:21:53 78° 107° (ESE) 874 4.4 -7.2°
Drops below altitude 10° 02:27:21 10° 194° (SSW) 2,466 6.1 -6.6°
Enters shadow 02:28:52 - 195° (SSW) 3,058 6.6 -6.4°
